Weather in Turara Ryskulova

Kazakhstan     42°32′04″N   70°21′02″E
temp.,
°C
wind,
m/s
gust,
m/s
humid.,
%
clouds,
%
prec.,
mm/h
press.,
hPa
HPBL,
m
13 april, tue
tue1300:00+7e11720 0.4 102110
03:00+6e11640 0.0 102110
06:00+6ese3355100 0.0 102115
09:00+11ene235394 0.0 1022157
12:00+16nne124185 0.0 1021890
15:00+17ene2338100 0.0 10211720
18:00+15ene3553100 0.1 1021336
21:00+11e226436 0.0 102114
14 april, wed
wed1400:00+9e337077 0.0 102032
03:00+9e336225 0.0 101930
06:00+9e3359100 0.0 101933
09:00+13ene23545 0.0 1018180
12:00+18ne32420 0.0 1016854
15:00+19ene44390 0.0 10151640
18:00+17ene69490 0.1 1014896
21:00+10nne117557 0.7 101611
15 april, thu
thu1500:00+11e336596 0.8 101543
03:00+11ese335213 0.0 101417
06:00+10ese225334 0.1 101511
09:00+14ne11502 0.0 1015133
12:00+18nw21470 0.0 1014850
15:00+19wnw334924 0.0 10121223
18:00+17wnw3463100 0.2 1013587
21:00+12sse1176100 0.9 101410
16 april, fri
fri1600:00+11sse11758 0.9 101310
03:00+10s22735 0.0 101311
06:00+9sse226880 0.0 101310
09:00+13ssw125597 0.0 1014163
12:00+17wsw57409 0.0 10131172
15:00+18wsw78410 0.0 10131428
18:00+17w57490 0.0 10141326
21:00+12s22615 0.0 101616
17 april, sat
sat1700:00+11s22600 0.0 101511
03:00+10sse22575 0.0 101412
06:00+9se22522 0.0 101411
09:00+14sse11445 0.0 1014125
12:00+18wnw333038 0.0 10131266
15:00+19w44336 0.0 10121553
18:00+17wnw3440100 0.0 10121266
21:00+13s2251100 0.0 101412